Location: State Camp
(41.2367°N, 77.7828°W)
Time: 18:27:11
(UTC-04:00)

Daily predictions for brighter satellites

Satellite Brightness Start Highest point End
(mag) Time Altitude Azimuth Time Altitude Azimuth Time Altitude Azimuth
CZ-2C R/B 3.8 19:18:22 10° S 19:23:08 44° W 19:27:46 10° NNW
NOSS 0 Rocket 4.4 19:17:47 10° SW 19:23:55 69° WNW 19:30:07 10° NNE
Cosmos 2278 Rocket 2.5 19:20:23 10° NNW 19:26:02 73° WSW 19:31:39 10° SSE
NOSS 3-2 (A) 3.7 19:20:25 10° S 19:26:11 49° ESE 19:32:25 10° NE
COSMO-SKYMED 1 2.7 19:21:59 10° NNE 19:26:21 87° WNW 19:30:41 10° SSW
Cosmos 1441 Rocket 3.3 19:22:48 10° NNW 19:26:33 79° W 19:30:17 10° S
Meteor 1-22 Rocket 4.3 19:21:29 10° SSE 19:26:39 51° E 19:31:46 10° NNE
Cosmos 1378 3.7 19:25:23 10° N 19:28:54 37° ENE 19:32:23 10° SSE
Cosmos 2297 3.8 19:25:15 10° NNW 19:30:54 62° ENE 19:36:27 10° SE
OAO 3 Rocket 4.2 19:26:39 10° SW 19:30:55 33° SSE 19:35:15 10° ESE
ALOS 3.7 19:28:00 10° ESE 19:31:18 20° ENE 19:34:37 10° NNE
USA 238 DEB 4.1 19:24:43 10° SW 19:31:45 72° NW 19:38:49 10° NNE
USA 238 4.1 19:24:48 10° SW 19:31:51 72° NW 19:38:56 10° NNE
Meteor 1-28 Rocket 3.4 19:28:17 10° NNE 19:31:53 45° E 19:35:26 10° S
ATLAS CENTAUR R/B 3.6 19:27:29 10° SSW 19:32:02 54° ESE 19:45:31 10° NE
CZ-4C R/B 2.8 19:29:30 10° SW 19:34:46 60° NW 19:40:43 10° NNE
Meteor 2-5 Rocket 4.2 19:30:33 10° NNW 19:36:09 67° W 19:41:37 10° S
Meteor 1-24 Rocket 3.7 19:31:02 10° N 19:36:42 71° E 19:42:08 10° SSE
Cosmos 1707 3.3 19:35:12 10° NNW 19:39:02 63° W 19:42:50 10° S
Cosmos 2369 Rocket 4.0 19:41:22 10° NNE 19:44:16 14° NE 19:47:06 10° ENE
Cosmos 2034 Rocket 4.4 19:38:41 10° SSE 19:44:27 41° E 19:50:18 10° NNE
SAR-Lupe-4 3.7 19:42:00 10° S 19:45:34 77° WSW 19:49:09 10° NNW
Cosmos 1766 Rocket 4.0 19:42:39 10° N 19:46:45 38° ENE 19:50:49 10° SSE
SJ-6B 2.8 19:42:58 10° SSE 19:46:56 86° ENE 19:51:00 10° NNW
Cosmos 1464 Rocket 4.0 19:40:50 10° S 19:46:56 58° E 19:52:59 10° NNE
Timation 1 Rocket 4.4 19:41:58 10° NNW 19:47:54 62° ENE 19:53:48 10° SE
FREGAT/IRIS 2.6 19:45:47 10° SSE 19:48:52 69° ENE 19:51:56 10° N
Cosmos 1437 3.5 19:47:32 10° NNW 19:50:45 58° W 19:53:57 10° S
Cosmos 1758 3.8 19:52:29 10° SSE 19:56:16 38° E 20:00:05 10° NNE
NOSS 3-3 (A) 4.5 19:50:19 10° NNW 19:57:47 71° NE 20:05:41 10° SE
NOSS 3-3 (C) 4.5 19:50:26 10° NNW 19:57:52 70° NE 20:05:47 10° SE
Cosmos 2333 Rocket 4.0 19:54:48 10° WSW 20:00:01 34° WNW 20:05:15 10° N
Spot 2 Rocket 3.4 19:57:01 10° SSE 20:02:01 71° ENE 20:07:03 10° N
NOSS 3-2 (C) 3.4 19:57:43 10° SSW 20:03:43 71° ESE 20:10:17 10° NE
Cosmos 1076 Rocket 3.4 19:59:25 10° N 20:03:44 73° E 20:08:04 10° SSE
CENTAUR R/B 3.6 20:00:08 10° SSE 20:04:06 18° ESE 20:05:41 17° E
FengYun 1-2 T 4.3 19:58:48 10° SSE 20:04:12 58° ENE 20:09:35 10° N
ASTEX 1 4.1 20:01:06 10° NNE 20:05:28 31° E 20:09:47 10° SSE
Helios 1B rocket 2.3 20:02:01 10° NNE 20:06:07 66° ESE 20:10:11 10° S
Cosmos 2056 Rocket 4.2 20:00:51 10° NNW 20:06:12 60° WSW 20:11:30 10° S
Cosmos-2242 3.2 20:04:24 10° SSE 20:08:35 48° E 20:12:49 10° NNE
In-Cosmos 22 4.2 20:08:40 10° N 20:14:28 77° E 20:20:13 10° SSE
Cosmos 1674 3.7 20:13:28 10° NNE 20:16:48 27° ENE 20:16:58 27° E
Cosmos 1842 Rocket 4.3 20:18:05 25° ESE 20:19:17 29° E 20:23:04 10° NNE
Meteor 1-21 Rocket 4.1 20:14:15 10° N 20:19:46 63° ENE 20:25:14 10° SSE
Atlas Centaur 2 4.3 20:13:09 10° WSW 20:20:14 30° SSW 20:26:10 12° SE
Cosmos 1500 Rocket 4.3 20:17:00 10° NNE 20:20:59 32° ENE 20:21:56 29° E
Cosmos 1408 Rocket 3.6 20:17:12 10° N 20:21:35 81° W 20:25:53 10° S
ASTRO E2 4.4 20:19:20 10° SW 20:22:20 20° S 20:23:33 18° SSE
Cosmos 2237 Rocket 4.4 20:21:19 10° WSW 20:26:00 26° NW 20:30:44 10° N
Cosmos 1346 3.2 20:25:29 10° N 20:28:07 49° NE 20:28:07 49° NE
ATLAS CENTAUR R/B 3.8 20:25:52 10° WNW 20:28:56 20° WSW 20:31:50 10° SSW
Abrixas 4.5 20:29:06 10° SSW 20:30:14 18° S 20:30:14 18° S
Resurs 01 Rocket 2.3 20:27:56 10° S 20:32:18 56° W 20:36:42 10° NNW
ATLAS 5 CENTAUR R/B 1.9 20:28:52 10° SW 20:33:38 82° NW 20:38:50 10° NNE
Resurs 1-3 3.8 20:29:30 10° S 20:33:53 70° WSW 20:38:16 10° NNW
USA 215 3.4 20:32:33 10° NE 20:39:05 73° NW 20:45:35 10° WSW
CZ-2D R/B 3.1 20:43:00 38° SSE 20:44:25 86° ENE 20:48:20 10° N
Meteor 1-29 4.2 20:41:07 10° N 20:44:29 44° WNW 20:47:49 10° SW
SL-16 R/B 3.6 20:39:50 10° SW 20:45:07 39° WNW 20:50:27 10° N
Cosmos 1743 Rocket 3.5 20:44:41 10° N 20:49:10 86° W 20:51:26 29° S
Cosmos 1953 3.5 20:47:14 10° SSW 20:51:03 44° WNW 20:54:53 10° N
ERS-1 Rocket 3.6 20:54:54 38° ENE 20:54:54 38° ENE 20:59:08 10° N
Cosmos 1655 Rocket 4.4 20:51:14 10° N 20:57:02 39° ENE 20:57:03 39° ENE
Nadezhda 4 Rocket 4.1 20:50:47 10° N 20:57:05 79° W 21:03:16 10° S
SeaSat 1 2.3 20:54:19 10° NNE 20:59:16 72° ESE 21:04:11 10° SSW
BREEZE-M DEB (TANK) 3.6 20:48:59 10° W 21:01:00 60° N 21:02:28 42° ENE
GP-B 3.2 20:57:32 10° N 21:01:21 58° NE 21:01:21 58° NE
H-2A R/B 3.3 21:01:10 39° SSW 21:02:19 57° W 21:06:11 10° NNW
Cosmos 1092 Rocket 3.8 20:56:50 10° N 21:03:06 85° E 21:06:37 27° S
Cosmos 1544 4.3 21:01:17 10° SSW 21:04:50 42° W 21:08:26 10° N
Cosmos 2142 Rocket 4.4 21:02:43 22° S 21:06:56 66° E 21:13:18 10° NNE
Cosmos 839 Rocket 4.3 20:59:37 10° NNW 21:07:19 57° NE 21:08:42 49° E
ALOS 3.3 21:04:18 12° S 21:08:25 44° W 21:12:54 10° NNW
FENGYUN 3A 4.5 21:06:52 10° S 21:12:02 49° W 21:17:16 10° NNW
OAO 3 Rocket 4.1 21:09:32 10° WSW 21:13:21 37° SSW 21:13:21 37° SSW
Cosmos 1634 Rocket 3.8 21:11:10 10° S 21:17:25 84° E 21:23:40 10° N
Cosmos 2026 Rocket 3.8 21:12:39 10° N 21:18:44 64° E 21:18:46 64° E
Cosmos 1470 4.1 21:24:32 36° NNW 21:24:32 36° NNW 21:27:11 10° N
H-2A R/B 4.3 21:31:47 17° N 21:31:47 17° N 21:32:59 10° N
Cosmos 2369 Rocket 2.1 21:23:32 10° NNW 21:28:54 78° NNE 21:28:54 78° NNE
Cosmos 1943 Rocket 3.3 21:31:35 10° N 21:35:15 33° NNE 21:35:15 33° NNE
Envisat 3.9 21:53:17 44° NNW 21:53:17 44° NNW 21:56:48 10° NNW
CENTAUR R/B 2.6 21:47:44 10° SW 21:59:44 14° NNE 22:00:41 10° NNE
